TimeEDT,TemperatureF,Dew PointF,Humidity,Sea Level PressureIn,VisibilityMPH,Wind Direction,Wind SpeedMPH,Gust SpeedMPH,PrecipitationIn,Events,Conditions,WindDirDegrees,DateUTC
12:15 AM,65.3,64.6,98,30.23,3.0,Calm,Calm,-,N/A,,Mostly Cloudy,0,2013-07-19 04:15:00
12:35 AM,64.9,64.4,98,30.22,3.0,Calm,Calm,-,N/A,,Overcast,0,2013-07-19 04:35:00
12:55 AM,65.8,65.3,98,30.22,3.0,Calm,Calm,-,N/A,,Overcast,0,2013-07-19 04:55:00
1:15 AM,65.7,64.8,97,30.22,1.0,Calm,Calm,-,N/A,,Overcast,0,2013-07-19 05:15:00
1:35 AM,65.7,64.8,97,30.22,0.2,Calm,Calm,-,N/A,Fog,Fog,0,2013-07-19 05:35:00
1:55 AM,65.5,64.6,97,30.21,0.2,Calm,Calm,-,N/A,Fog,Fog,0,2013-07-19 05:55:00
2:15 AM,65.3,64.4,97,30.20,0.2,Calm,Calm,-,N/A,Fog,Fog,0,2013-07-19 06:15:00
2:35 AM,65.3,64.4,97,30.20,0.2,Calm,Calm,-,N/A,Fog,Fog,0,2013-07-19 06:35:00
2:55 AM,64.9,63.9,96,30.19,0.2,Calm,Calm,-,N/A,Fog,Fog,0,2013-07-19 06:55:00
3:15 AM,64.9,63.9,96,30.19,0.5,Calm,Calm,-,N/A,Fog,Fog,0,2013-07-19 07:15:00
3:35 AM,64.8,63.7,96,30.19,0.5,Calm,Calm,-,N/A,Fog,Fog,0,2013-07-19 07:35:00
3:55 AM,64.6,63.5,96,30.19,1.5,Calm,Calm,-,N/A,,Overcast,0,2013-07-19 07:55:00
4:15 AM,64.4,63.1,96,30.19,0.2,Calm,Calm,-,N/A,Fog,Fog,0,2013-07-19 08:15:00
4:35 AM,64.4,63.1,96,30.18,0.2,Calm,Calm,-,N/A,Fog,Fog,0,2013-07-19 08:35:00
4:55 AM,64.4,63.0,95,30.18,0.5,Calm,Calm,-,N/A,Fog,Fog,0,2013-07-19 08:55:00
5:15 AM,64.0,62.8,96,30.18,0.5,Calm,Calm,-,N/A,Fog,Fog,0,2013-07-19 09:15:00
5:35 AM,64.0,62.8,96,30.18,0.5,Calm,Calm,-,N/A,Fog,Fog,0,2013-07-19 09:35:00
5:55 AM,64.0,62.8,96,30.19,1.2,Calm,Calm,-,N/A,,Overcast,0,2013-07-19 09:55:00
6:15 AM,63.5,62.2,96,30.18,0.5,Calm,Calm,-,N/A,Fog,Fog,0,2013-07-19 10:15:00
6:35 AM,63.7,62.2,95,30.19,0.5,Calm,Calm,-,N/A,Fog,Fog,0,2013-07-19 10:35:00
6:55 AM,63.7,62.2,95,30.19,0.5,Calm,Calm,-,N/A,Fog,Fog,0,2013-07-19 10:55:00
7:15 AM,63.7,62.2,95,30.19,0.5,Calm,Calm,-,N/A,Fog,Fog,0,2013-07-19 11:15:00
7:35 AM,63.5,62.1,95,30.20,0.2,Calm,Calm,-,N/A,Fog,Fog,0,2013-07-19 11:35:00
7:55 AM,63.5,62.1,95,30.20,1.0,Calm,Calm,-,N/A,,Overcast,0,2013-07-19 11:55:00
8:15 AM,63.5,62.1,95,30.21,1.5,Calm,Calm,-,N/A,,Overcast,0,2013-07-19 12:15:00
8:35 AM,63.9,62.6,96,30.21,3.0,Calm,Calm,-,N/A,,Overcast,0,2013-07-19 12:35:00
8:55 AM,63.7,62.2,95,30.22,5.0,Calm,Calm,-,N/A,,Overcast,0,2013-07-19 12:55:00
9:15 AM,64.2,62.6,94,30.22,7.0,Calm,Calm,-,N/A,,Overcast,0,2013-07-19 13:15:00
9:35 AM,64.9,63.7,96,30.23,7.0,Calm,Calm,-,N/A,,Overcast,0,2013-07-19 13:35:00
9:55 AM,65.1,63.9,96,30.23,7.0,Calm,Calm,-,N/A,,Overcast,0,2013-07-19 13:55:00
10:15 AM,65.5,64.2,96,30.22,10.0,Calm,Calm,-,N/A,,Overcast,0,2013-07-19 14:15:00
10:35 AM,66.2,65.1,96,30.22,7.0,Calm,Calm,-,N/A,,Overcast,0,2013-07-19 14:35:00
10:55 AM,68.4,67.3,96,30.22,10.0,Calm,Calm,-,N/A,,Overcast,0,2013-07-19 14:55:00
11:15 AM,68.9,66.7,93,30.21,10.0,Calm,Calm,-,N/A,,Overcast,0,2013-07-19 15:15:00
11:35 AM,70.7,65.1,82,30.21,10.0,Calm,Calm,-,N/A,,Mostly Cloudy,0,2013-07-19 15:35:00
11:55 AM,72.7,64.4,75,30.21,10.0,Calm,Calm,-,N/A,,Scattered Clouds,0,2013-07-19 15:55:00
12:15 PM,73.9,63.5,70,30.20,10.0,Calm,Calm,-,N/A,,Clear,0,2013-07-19 16:15:00
12:35 PM,75.4,64.4,69,30.19,10.0,Calm,Calm,-,N/A,,Clear,0,2013-07-19 16:35:00
12:55 PM,77.9,64.4,63,30.18,10.0,Calm,Calm,-,N/A,,Clear,0,2013-07-19 16:55:00
1:15 PM,78.6,63.0,59,30.17,10.0,Calm,Calm,-,N/A,,Clear,0,2013-07-19 17:15:00
1:35 PM,79.3,60.6,53,30.16,10.0,Calm,Calm,-,N/A,,Clear,0,2013-07-19 17:35:00
1:55 PM,81.3,58.3,45,30.15,10.0,Calm,Calm,-,N/A,,Clear,0,2013-07-19 17:55:00
2:15 PM,82.6,59.0,45,30.13,10.0,Calm,Calm,-,N/A,,Clear,0,2013-07-19 18:15:00
2:35 PM,83.1,59.9,45,30.13,10.0,Calm,Calm,-,N/A,,Clear,0,2013-07-19 18:35:00
2:55 PM,83.5,60.4,46,30.12,10.0,Calm,Calm,-,N/A,,Clear,0,2013-07-19 18:55:00
3:15 PM,84.2,61.3,46,30.11,10.0,Calm,Calm,-,N/A,,Scattered Clouds,0,2013-07-19 19:15:00
3:35 PM,84.0,63.7,50,30.11,10.0,West,4.6,-,N/A,,Scattered Clouds,280,2013-07-19 19:35:00
3:55 PM,84.7,63.7,49,30.09,10.0,WNW,3.5,-,N/A,,Clear,300,2013-07-19 19:55:00
4:15 PM,82.6,63.9,53,30.09,10.0,SW,5.8,-,N/A,,Scattered Clouds,230,2013-07-19 20:15:00
4:35 PM,82.4,67.1,60,30.09,10.0,West,6.9,-,N/A,,Scattered Clouds,270,2013-07-19 20:35:00
4:55 PM,81.1,66.4,61,30.08,10.0,WSW,4.6,-,N/A,,Clear,240,2013-07-19 20:55:00
5:15 PM,79.2,66.4,65,30.08,10.0,Calm,Calm,-,N/A,,Scattered Clouds,0,2013-07-19 21:15:00
5:35 PM,78.8,66.0,65,30.08,10.0,Calm,Calm,-,N/A,,Scattered Clouds,0,2013-07-19 21:35:00
5:55 PM,79.3,67.8,68,30.09,10.0,Calm,Calm,-,N/A,,Scattered Clouds,0,2013-07-19 21:55:00
6:15 PM,78.8,66.7,66,30.09,10.0,Calm,Calm,-,N/A,,Mostly Cloudy,0,2013-07-19 22:15:00
6:35 PM,79.0,66.4,65,30.08,10.0,Calm,Calm,-,N/A,,Scattered Clouds,0,2013-07-19 22:35:00
6:55 PM,77.9,66.0,67,30.09,10.0,South,3.5,-,N/A,,Clear,170,2013-07-19 22:55:00
7:15 PM,76.8,65.3,67,30.09,10.0,Calm,Calm,-,N/A,,Scattered Clouds,0,2013-07-19 23:15:00
7:35 PM,75.7,66.0,72,30.08,10.0,Calm,Calm,-,N/A,,Scattered Clouds,0,2013-07-19 23:35:00
7:55 PM,75.2,66.0,73,30.09,10.0,Calm,Calm,-,N/A,,Clear,0,2013-07-19 23:55:00
8:15 PM,74.7,65.5,73,30.09,10.0,Calm,Calm,-,N/A,,Clear,0,2013-07-20 00:15:00
8:35 PM,74.1,66.0,76,30.09,10.0,Calm,Calm,-,N/A,,Mostly Cloudy,0,2013-07-20 00:35:00
8:55 PM,72.5,67.6,85,30.10,10.0,Calm,Calm,-,N/A,,Scattered Clouds,0,2013-07-20 00:55:00
9:15 PM,71.2,66.9,86,30.11,10.0,Calm,Calm,-,N/A,,Mostly Cloudy,0,2013-07-20 01:15:00
9:35 PM,70.2,66.4,88,30.11,10.0,Calm,Calm,-,N/A,,Scattered Clouds,0,2013-07-20 01:35:00
9:55 PM,70.3,66.4,87,30.11,10.0,Calm,Calm,-,N/A,,Clear,0,2013-07-20 01:55:00
10:15 PM,69.3,66.6,91,30.12,7.0,Calm,Calm,-,N/A,,Clear,0,2013-07-20 02:15:00
10:35 PM,68.9,66.6,92,30.13,7.0,Calm,Calm,-,N/A,,Clear,0,2013-07-20 02:35:00
10:55 PM,68.0,66.6,95,30.14,7.0,Calm,Calm,-,N/A,,Clear,0,2013-07-20 02:55:00
11:15 PM,67.1,66.4,98,30.13,7.0,Calm,Calm,-,N/A,,Clear,0,2013-07-20 03:15:00
11:35 PM,67.1,66.6,98,30.14,5.0,Calm,Calm,-,N/A,,Clear,0,2013-07-20 03:35:00
11:55 PM,66.9,66.4,98,30.15,7.0,Calm,Calm,-,N/A,,Scattered Clouds,0,2013-07-20 03:55:00